Powrót do katalogu

TITAN 34B AGENA D R/B

AktywnyHEO
NORAD 5054·ROCKET BODY·🇺🇸 United States

Wystrzelony Mar 21, 1971 z Vandenberg Space Force Base

Loading…

Następne Przeloty (najbliższe 24 godziny)

TLE

ŚwieżeSource: Space-Track

Epoka: Sep 10, 2026, 03:42 UTC

1  5054U 71021B   26253.15451962  .00000187  00000-0  18014-3 0  9999
2  5054  63.5122 357.0268 7322590 267.4924  15.3379  2.20316542 58981

Śledź TITAN 34B AGENA D R/B w czasie rzeczywistym z AllMySat

Download on the App Store